Location: Columbia
(38.9520°N, 92.3340°W)
Time: 18:11:15
(UTC-05:00)

SL-08 RB Rocket - Visible Passes

Search period start: 30 June 2016 00:00
Search period end: 10 July 2016 00:00
Orbit: 648 x 686 km, 98.0° (Epoch: 30 June)

Date Brightness Start Highest point End Pass type
(mag) Time Alt. Az. Time Alt. Az. Time Alt. Az.
30 Jun 5.4 21:32:55 10° ESE 21:35:53 18° ENE 21:38:52 10° NNE visible
30 Jun 4.6 23:11:03 31° SW 23:12:34 41° W 23:16:51 10° NNW visible
01 Jul 4.5 22:05:02 21° ESE 22:07:21 37° ENE 22:11:30 10° N visible
01 Jul 5.7 23:43:10 17° WSW 23:44:30 19° W 23:47:42 10° NW visible
02 Jul 3.6 22:37:09 36° SSE 22:38:59 83° ENE 22:43:30 10° N visible
03 Jul 5.5 21:31:12 10° ESE 21:34:06 17° ENE 21:37:00 10° NNE visible
03 Jul 4.5 23:09:16 32° SW 23:10:46 43° W 23:15:05 10° NNW visible
04 Jul 4.5 22:03:14 21° ESE 22:05:33 35° ENE 22:09:40 10° N visible
04 Jul 5.6 23:41:23 18° WSW 23:42:41 20° W 23:46:00 10° NW visible
05 Jul 3.6 22:35:21 36° SSE 22:37:11 79° ENE 22:41:43 10° N visible
06 Jul 5.5 21:29:30 10° ESE 21:32:18 17° ENE 21:35:08 10° NNE visible
06 Jul 4.4 23:07:29 33° SSW 23:08:57 45° W 23:13:18 10° NNW visible
07 Jul 4.6 22:01:28 21° ESE 22:03:46 34° ENE 22:07:51 10° N visible
07 Jul 5.6 23:39:36 19° WSW 23:40:52 21° W 23:44:17 10° NW visible
08 Jul 3.6 22:33:35 36° SSE 22:35:23 76° ENE 22:39:55 10° N visible
09 Jul 5.6 21:27:48 10° ESE 21:30:32 16° ENE 21:33:16 10° NNE visible
09 Jul 4.4 23:05:43 35° SSW 23:07:08 47° W 23:11:32 10° NNW visible
